Weather History for CYVQ - June, 2013

Change the Weather History Date:

Friday, June 21, 2013

  Actual Average Record
Temperature  
Mean Temperature 74 °F -  
Max Temperature 89 °F 71 °F 89 °F (2013)
Min Temperature 59 °F 51 °F 41 °F (2015)
Cooling Degree Days 9    
Growing Degree Days 24 (Base 50)    
Moisture  
Dew Point 51 °F    
Average Humidity 43    
Maximum Humidity 61    
Minimum Humidity 21    
Precipitation  
Precipitation 0.00 in 0.06 in - ()
Sea Level Pressure  
Sea Level Pressure 29.79 in    
Wind  
Wind Speed 8 mph ()    
Max Wind Speed 28 mph    
Max Gust Speed 40 mph    
Visibility 20.0 miles    
Events      
Averages and records for this station are not official NWS values.
T = Trace of Precipitation, MM = Missing Value Source: Averaged Metar Reports

Daily Weather History Graph

Daily Weather History Graph

Search for Another Location

Airport or City:

Trip Planner

Search our weather history database for the weather conditions in past years. The results will help you decide how hot, cold, wet, or windy it might be!

Date:

Astronomy

Jun. 21, 2013 Rise Set
Actual Time 3:15 AM MDT 1:42 AM MDT
Civil Twilight Sun does not set Sun does not set
Nautical Twilight Sun does not set Sun does not set
Astronomical Twilight Sun does not set Sun does not set
Moon 10:43 PM MDT (6/21) 3:07 AM MDT (6/21)
Length of Visible Light 24h 00m
Length of Day
22h 27m
Waxing Gibbous, 95% of the Moon is Illuminated
Jun 21
Waxing Gibbous
Jun 23
Full
Jun 29
Last Quarter
Jul 8
New
Jul 15
First Quarter

Hourly Weather History & Observations

Time (MDT) Temp. Heat Index Dew Point Humidity Pressure Visibility Wind Dir Wind Speed Gust Speed Precip Events Conditions
12:00 AM 72 °F - 49 °F 33% 29.92 in 28 mi ESE 8.1 mph - -   Scattered Clouds
12:00 AM 71.6 °F - 48.2 °F 43% 29.92 in 30.0 mi ESE 8.1 mph - N/A   Scattered Clouds
1:00 AM 68.0 °F - 46.4 °F 46% 29.91 in 30.0 mi East 6.9 mph - N/A   Scattered Clouds
2:00 AM 66.2 °F - 46.4 °F 49% 29.91 in 30.0 mi ESE 9.2 mph - N/A   Scattered Clouds
3:00 AM 64.4 °F - 46.4 °F 52% 29.90 in 30.0 mi East 8.1 mph - N/A   Partly Cloudy
4:00 AM 62.6 °F - 46.4 °F 55% 29.88 in 30.0 mi ESE 9.2 mph - N/A   Scattered Clouds
5:00 AM 60.8 °F - 44.6 °F 55% 29.87 in 30.0 mi East 6.9 mph - N/A   Scattered Clouds
6:00 AM 62 °F - 45 °F 42% 29.86 in 28 mi East 8.1 mph - -   Scattered Clouds
6:00 AM 62.6 °F - 44.6 °F 52% 29.86 in 30.0 mi East 8.1 mph - N/A   Scattered Clouds
7:00 AM 64.4 °F - 48.2 °F 56% 29.85 in 30.0 mi ESE 6.9 mph - N/A   Mostly Cloudy
8:00 AM 68.0 °F - 48.2 °F 49% 29.84 in 30.0 mi ESE 10.4 mph - N/A   Mostly Cloudy
9:00 AM 71.6 °F - 50.0 °F 46% 29.82 in 30.0 mi ESE 12.7 mph - N/A   Overcast
10:00 AM 71.6 °F - 51.8 °F 50% 29.81 in 30.0 mi SE 11.5 mph - N/A   Overcast
11:00 AM 77.0 °F - 53.6 °F 44% 29.78 in 30.0 mi ESE 11.5 mph - N/A   Overcast
12:00 PM 78 °F - 55 °F 35% 29.78 in 28 mi SE 12.7 mph - -   Overcast
12:00 PM 77.0 °F - 55.4 °F 47% 29.78 in 30.0 mi SE 12.7 mph - N/A   Overcast
1:00 PM 82.4 °F 81.7 °F 55.4 °F 39% 29.76 in 30.0 mi SE 12.7 mph - N/A   Mostly Cloudy
2:00 PM 82.4 °F 82.0 °F 57.2 °F 42% 29.74 in 30.0 mi ESE 11.5 mph - N/A   Mostly Cloudy
3:00 PM 84.2 °F 83.8 °F 59.0 °F 42% 29.73 in 30.0 mi SE 4.6 mph - N/A   Mostly Cloudy
4:00 PM 87.8 °F 86.5 °F 57.2 °F 35% 29.71 in 30.0 mi ESE 10.4 mph - N/A   Overcast
5:00 PM 87.8 °F - 51.8 °F 29% 29.69 in 30.0 mi ESE 9.2 mph - N/A   Mostly Cloudy
6:00 PM 86 °F - 52 °F 21% 29.68 in 28 mi ESE 8.1 mph - -   Overcast
6:00 PM 86.0 °F - 51.8 °F 31% 29.68 in 30.0 mi ESE 8.1 mph - N/A   Overcast
7:00 PM 86.0 °F - 50.0 °F 29% 29.66 in 30.0 mi East 8.1 mph - N/A   Mostly Cloudy
8:00 PM 86.0 °F - 50.0 °F 29% 29.65 in 30.0 mi East 5.8 mph - N/A   Mostly Cloudy
9:00 PM 78.8 °F - 57.2 °F 47% 29.69 in 20.0 mi West 27.6 mph 40.3 mph N/A   Mostly Cloudy
10:00 PM 73.4 °F - 59.0 °F 61% 29.74 in 20.0 mi WNW 11.5 mph 25.3 mph N/A   Mostly Cloudy
11:00 PM 71.6 °F - 55.4 °F 57% 29.73 in 20.0 mi WNW 10.4 mph - N/A   Mostly Cloudy